Weather Roundup
Issued by NWS Chicago, IL

Home | Current Version | Previous Version | Text Only | Print | Product List | Glossary On
Versions: 1 2 3 4 5 6 7 8 9 10 11 12 13 14 15 16 17 18 19 20 21 22 23 24 25 26 27 28 29 30 31 32 33 34 35 36 37 38 39 40 41 42 43 44 45 46 47 48 49 50
000
NZUS59 KLOT 220308
HRRLOT

CHICAGO AREA WEATHER ROUNDUP
NATIONAL WEATHER SERVICE CHICAGO/ROMEOVILLE IL
900 PM CST SUN JAN 21 2018

NOTE: "FAIR" INDICATES FEW OR NO CLOUDS BELOW 12,000 FEET WITH NO
SIGNIFICANT WEATHER AND/OR OBSTRUCTIONS TO VISIBILITY.

* THESE STATIONS ARE NOT UNDER NWS QUALITY CONTROL. THEY ALSO MAY NOT
  REPORT WEATHER SUCH AS PRECIPITATION OR FOG.

ILZ005-006-012>014-019>023-220400-
NORTHEAST ILLINOIS

CITY           SKY/WX    TMP DP  RH WIND       PRES   REMARKS
OHARE          DRZL/FOG  42  41  96 E5        29.87F VSB 1/8
MIDWAY         FOG       43  43 100 CALM      29.88F VSB 1/8
AURORA         FOG       44  44 100 E8        29.85F VSB 1/4
LANSING*       FOG       46  46 100 S9        29.89F VSB 3/4
JOLIET*        FOG       46  46 100 SE5       29.87F VSB 1/2
WAUKEGAN       FOG       36  36 100 NE6       29.88F VSB 1/4
DUPAGE AIRPORT FOG       43  43 100 SE6       29.86F VSB 1/4
WHEELING       FOG       40  40 100 CALM      29.89F VSB 3/4
KANKAKEE*      CLOUDY   N/A N/A N/A S10       29.90F FOG
MORRIS*        FOG       46  46  99 SE8       29.84F VSB 1/4
LEWIS AIRPORT* FOG       44  44 100 S8        29.87S VSB 1/4
NORTHERLY ISL    N/A     37  36  96 NE1         N/A
$$

WIZ051-052-058>065-066-070>072-220400-
SOUTHEAST WISCONSIN

CITY           SKY/WX    TMP DP  RH WIND       PRES   REMARKS
MILWAUKEE      LGT RAIN  38  37  97 NE8       29.91F VSB 1/2
KENOSHA*       FOG       38  36  92 E8        29.89F VSB 1/4
RACINE*        LGT RAIN  38  38 100 E8        29.91F VSB 1/2
BURLINGTON     FOG       36  35  97 NE5       29.88F VSB 3/4
WAUKESHA       FOG       34  34 100 E6        29.91F VSB 1/2 WCI  29
WEST BEND      CLOUDY    34  34 100 E7        29.93S FOG     WCI  28
$$

INZ001>003-010>013-019-020-220400-
NORTHWEST INDIANA

CITY           SKY/WX    TMP DP  RH WIND       PRES   REMARKS
GARY*          FOG       48  48 100 S7        29.92S VSB 3/4
MICHIGAN CITY* NOT AVBL
RENSSELAER*    NOT AVBL
VALPARAISO     FOG       45  45 100 S8        29.92F VSB 1/4
$$

LMZ740>746-220400-
SOUTHERN LAKE MICHIGAN

STATION/POSITION TIME  SKY/WX   TEMP WIND        PRES    VSBY
                                AIR  DIR/SP/G
                 (UTC)          (F)  (DEG/KT/KT) (MB)    (MI)
HARRISON CRIB    0240            38  150/  4/  5   N/A
BURNHAM HARBOR   0300            37   20/  2/  2   N/A
CALUMET HARBOR   0248            45  160/  5/  9 1011.4F
BURNS HARBOR     0240            47  170/ 11/ 17 1013.2F
MICHIGAN CITY    0240            45  150/ 13/ 19   N/A
$$

ABBREVIATIONS USED IN REMARKS
   TC - TEMPERATURE IN CELSIUS
  WCI - WIND CHILL INDEX
   HX - HEAT INDEX
  VSB - VISIBILITY
$$




USA.gov is the U.S. government's official web portal to all federal, state and local government web resources and services.